Погода в Чевакине

Россия / Архангельская область     64°20′40″N   40°58′48″E
темп.,
°C
ветер,
м/с
пор.,
м/с
влажн.,
%
обл.,
%
осадки,
мм/ч
давл.,
гПа
погр.,
м
22 апреля, чт
чт2200:00+4ююв51296100 0.1 1006884
03:00+3ююв51096100 0.3 1005768
06:00+2ююв41196100 0.9 1004742
09:00+3ю498482 1.4 1004905
12:00+5ю5968100 0.3 10041311
15:00+5ююз586698 0.7 10051293
18:00+6ююз3666100 0.3 10061176
21:00+3юз387885 0.4 1007517
23 апреля, пт
пт2300:00+2юз41089100 0.0 1009609
03:00+3юз488587 0.0 1011570
06:00+3ююз388614 0.0 1013311
09:00+7ю246638 0.0 1014664
12:00+11ююв355714 0.0 10141043
15:00+14юв474968 0.0 10131769
18:00+13юв4105489 0.0 1012959
21:00+11юв51368100 0.0 1011721
24 апреля, сб
сб2400:00+10юв41277100 0.1 1011574
03:00+8юв31089100 0.1 1012421
06:00+8юв3991100 0.0 1012425
09:00+11юв487282 0.0 1012736
12:00+15юв595193 0.0 10111624
15:00+14юв5951100 0.1 10111572
18:00+14юв5104970 0.0 10101663
21:00+11юв5126080 0.1 1010805
25 апреля, вс
вс2500:00+8вюв412675 0.0 1010578
03:00+6вюв4117445 0.0 1009476
06:00+6в41176100 0.0 1009511
09:00+8в5963100 0.0 1008773
12:00+9вюв4869100 0.0 10071374
15:00+8вюв3881100 0.4 10071032
18:00+8всв2673100 0.1 1006303
21:00+7в3877100 0.3 1005378
26 апреля, пн
пн2600:00+6всв3883100 0.3 1005593
03:00+4св2694100 0.3 1004183
06:00+5св2690100 0.1 1003330
09:00+6св2586100 0.2 1003579
12:00+5св2591100 0.7 1003438
15:00+6в2386100 1.2 1003436
18:00+7св1276100 0.3 1002473
21:00+6з1184100 0.4 100213